When you browse on this site, cookies collect data to enhance your experience and personalize the content and advertising you see.
Visit our Privacy Policy to learn more. By continuing to use the site, you agree to this use of cookies and data.
  • In Romania
  • List of Countries
  • For 7 days
  • Water Temperature
  • Satellite Maps
  • Weather Map
  • Weather Widgets
  • user-avatar
    Login

    Hourly Weather Longjumeau

    Today, 24 June, Monday

    Time Temperature Precipitation Wind Pressure Humidity
    00:00 +23°C° 0 mm 2 mps 754 mmHg 84%
    01:00 +21°C° 0 mm 2 mps 754 mmHg 84%
    02:00 +21°C° 0 mm 2 mps 754 mmHg 85%
    03:00 +20°C° 0 mm 2 mps 754 mmHg 85%
    04:00 +22°C° 0 mm 1 mps 755 mmHg 83%
    05:00 +23°C° 0 mm 1 mps 755 mmHg 80%
    06:00 +23°C° 0 mm 1 mps 755 mmHg 78%
    07:00 +25°C° 0 mm 1 mps 755 mmHg 72%
    08:00 +27°C° 0 mm 1 mps 755 mmHg 66%
    09:00 +27°C° 0 mm 0 mps 756 mmHg 59%
    10:00 +30°C° 0 mm 1 mps 756 mmHg 56%
    11:00 +31°C° 0 mm 2 mps 756 mmHg 52%
    12:00 +32°C° 0 mm 2 mps 756 mmHg 48%
    13:00 +33°C° 0 mm 3 mps 756 mmHg 49%
    14:00 +33°C° 0 mm 3 mps 755 mmHg 50%
    15:00 +33°C° 0 mm 4 mps 755 mmHg 52%
    16:00 +32°C° 0 mm 4 mps 755 mmHg 56%
    17:00 +30°C° 0 mm 4 mps 754 mmHg 61%
    18:00 +29°C° 0 mm 4 mps 754 mmHg 65%
    19:00 +28°C° 0 mm 4 mps 754 mmHg 68%
    20:00 +28°C° 0 mm 4 mps 754 mmHg 71%
    21:00 +27°C° 0 mm 3 mps 754 mmHg 73%
    22:00 +26°C° 0 mm 3 mps 754 mmHg 76%
    23:00 +25°C° 0 mm 3 mps 754 mmHg 79%

    Tomorrow, 25 June, Tuesday

    Time Temperature Precipitation Wind Pressure Humidity
    00:00 +25°C° 0 mm 2 mps 754 mmHg 82%
    01:00 +24°C° 0 mm 2 mps 754 mmHg 82%
    02:00 +24°C° 0 mm 2 mps 754 mmHg 82%
    03:00 +23°C° 0 mm 2 mps 754 mmHg 82%
    04:00 +24°C° 0 mm 2 mps 754 mmHg 81%
    05:00 +24°C° 0 mm 2 mps 754 mmHg 81%
    06:00 +25°C° 0 mm 2 mps 755 mmHg 81%
    07:00 +26°C° 0 mm 2 mps 755 mmHg 76%
    08:00 +28°C° 0 mm 2 mps 755 mmHg 70%
    09:00 +30°C° 0 mm 3 mps 756 mmHg 65%
    10:00 +31°C° 0 mm 3 mps 756 mmHg 58%
    11:00 +33°C° 0 mm 3 mps 756 mmHg 53%
    12:00 +34°C° 0 mm 3 mps 757 mmHg 48%
    13:00 +34°C° 0 mm 3 mps 757 mmHg 48%
    14:00 +34°C° 0 mm 3 mps 757 mmHg 47%
    15:00 +35°C° 0 mm 3 mps 758 mmHg 46%
    16:00 +34°C° 0 mm 2 mps 758 mmHg 50%
    17:00 +32°C° 0 mm 2 mps 758 mmHg 54%
    18:00 +31°C° 0 mm 2 mps 758 mmHg 59%
    19:00 +30°C° 0 mm 2 mps 758 mmHg 63%
    20:00 +28°C° 0 mm 2 mps 759 mmHg 68%
    21:00 +27°C° 0 mm 2 mps 759 mmHg 73%
    22:00 +26°C° 0 mm 2 mps 759 mmHg 76%
    23:00 +25°C° 0 mm 3 mps 759 mmHg 79%

    Day after tomorrow, 26 June, Wednesday

    Time Temperature Precipitation Wind Pressure Humidity
    00:00 +24°C° 0 mm 3 mps 759 mmHg 83%
    01:00 +24°C° 0 mm 3 mps 759 mmHg 83%
    02:00 +22°C° 0 mm 3 mps 759 mmHg 83%
    03:00 +22°C° 0 mm 3 mps 759 mmHg 84%
    04:00 +22°C° 0 mm 3 mps 759 mmHg 82%
    05:00 +22°C° 0 mm 4 mps 759 mmHg 80%
    06:00 +23°C° 0 mm 4 mps 759 mmHg 79%
    07:00 +25°C° 0 mm 4 mps 759 mmHg 75%
    08:00 +27°C° 0 mm 4 mps 759 mmHg 71%
    09:00 +29°C° 0 mm 4 mps 759 mmHg 66%
    10:00 +30°C° 0 mm 4 mps 759 mmHg 63%
    11:00 +33°C° 0 mm 5 mps 759 mmHg 59%
    12:00 +34°C° 0 mm 5 mps 759 mmHg 56%
    13:00 +35°C° 0 mm 5 mps 759 mmHg 57%
    14:00 +35°C° 0 mm 5 mps 759 mmHg 57%
    15:00 +35°C° 0 mm 6 mps 758 mmHg 58%
    16:00 +34°C° 0 mm 5 mps 758 mmHg 61%
    17:00 +34°C° 0 mm 5 mps 758 mmHg 65%
    18:00 +33°C° 0 mm 5 mps 758 mmHg 68%
    19:00 +32°C° 0 mm 5 mps 758 mmHg 72%
    20:00 +29°C° 0 mm 5 mps 758 mmHg 76%
    21:00 +28°C° 0 mm 5 mps 758 mmHg 80%
    22:00 +27°C° 0 mm 5 mps 758 mmHg 81%
    23:00 +26°C° 0 mm 4 mps 758 mmHg 83%

    27 June, Thursday

    Time Temperature Precipitation Wind Pressure Humidity
    00:00 +25°C° 0 mm 3 mps 758 mmHg 84%
    01:00 +25°C° 0 mm 4 mps 758 mmHg 84%
    02:00 +23°C° 0 mm 5 mps 758 mmHg 85%
    03:00 +22°C° 0 mm 5 mps 758 mmHg 85%
    04:00 +23°C° 0 mm 5 mps 758 mmHg 83%
    05:00 +23°C° 0 mm 5 mps 758 mmHg 81%
    06:00 +23°C° 0 mm 5 mps 758 mmHg 79%
    07:00 +26°C° 0 mm 5 mps 758 mmHg 75%
    08:00 +28°C° 0 mm 5 mps 758 mmHg 71%
    09:00 +29°C° 0 mm 5 mps 758 mmHg 67%
    10:00 +32°C° 0 mm 5 mps 758 mmHg 64%
    11:00 +34°C° 0 mm 5 mps 758 mmHg 61%
    12:00 +35°C° 0 mm 5 mps 758 mmHg 58%
    13:00 +36°C° 0 mm 5 mps 758 mmHg 58%
    14:00 +36°C° 0 mm 4 mps 757 mmHg 58%
    15:00 +36°C° 0 mm 4 mps 757 mmHg 58%
    16:00 +35°C° 0 mm 5 mps 757 mmHg 61%
    17:00 +35°C° 0 mm 5 mps 757 mmHg 65%
    18:00 +34°C° 0 mm 5 mps 757 mmHg 68%
    19:00 +32°C° 0 mm 4 mps 757 mmHg 70%
    20:00 +30°C° 0 mm 4 mps 757 mmHg 73%
    21:00 +28°C° 0 mm 4 mps 757 mmHg 75%
    22:00 +27°C° 0 mm 4 mps 757 mmHg 76%
    23:00 +26°C° 0 mm 4 mps 757 mmHg 77%

    28 June, Friday

    Time Temperature Precipitation Wind Pressure Humidity
    00:00 +25°C° 0 mm 3 mps 757 mmHg 78%
    01:00 +24°C° 0 mm 3 mps 757 mmHg 77%
    02:00 +24°C° 0 mm 3 mps 757 mmHg 76%
    03:00 +22°C° 0 mm 3 mps 757 mmHg 75%
    04:00 +22°C° 0 mm 3 mps 757 mmHg 71%
    05:00 +24°C° 0 mm 3 mps 757 mmHg 68%
    06:00 +24°C° 0 mm 3 mps 757 mmHg 64%
    07:00 +25°C° 0 mm 4 mps 757 mmHg 61%
    08:00 +27°C° 0 mm 4 mps 757 mmHg 58%
    09:00 +28°C° 0 mm 4 mps 757 mmHg 54%
    10:00 +30°C° 0 mm 4 mps 757 mmHg 51%
    11:00 +32°C° 0 mm 4 mps 756 mmHg 49%
    12:00 +34°C° 0 mm 5 mps 756 mmHg 46%
    13:00 +34°C° 0 mm 5 mps 756 mmHg 45%
    14:00 +35°C° 0 mm 5 mps 756 mmHg 45%
    15:00 +35°C° 0 mm 5 mps 756 mmHg 45%
    16:00 +34°C° 0 mm 4 mps 755 mmHg 49%
    17:00 +33°C° 0 mm 4 mps 755 mmHg 53%
    18:00 +32°C° 0 mm 4 mps 755 mmHg 57%
    19:00 +30°C° 0 mm 4 mps 755 mmHg 59%
    20:00 +28°C° 0 mm 3 mps 755 mmHg 61%
    21:00 +26°C° 0 mm 3 mps 755 mmHg 63%
    22:00 +25°C° 0 mm 3 mps 755 mmHg 64%
    23:00 +25°C° 0 mm 3 mps 755 mmHg 65%

    29 June, Saturday

    Time Temperature Precipitation Wind Pressure Humidity
    00:00 +24°C° 0 mm 3 mps 754 mmHg 66%
    01:00 +22°C° 0 mm 3 mps 754 mmHg 64%
    02:00 +23°C° 0 mm 2 mps 754 mmHg 63%
    03:00 +21°C° 0 mm 2 mps 753 mmHg 61%
    04:00 +21°C° 0 mm 2 mps 753 mmHg 60%
    05:00 +23°C° 0 mm 2 mps 753 mmHg 59%
    06:00 +23°C° 0 mm 2 mps 754 mmHg 58%
    07:00 +26°C° 0 mm 2 mps 754 mmHg 54%
    08:00 +28°C° 0 mm 2 mps 754 mmHg 51%
    09:00 +30°C° 0 mm 2 mps 754 mmHg 47%
    10:00 +32°C° 0 mm 2 mps 754 mmHg 44%
    11:00 +35°C° 0 mm 2 mps 754 mmHg 41%
    12:00 +37°C° 0 mm 2 mps 754 mmHg 38%
    13:00 +37°C° 0 mm 2 mps 753 mmHg 38%
    14:00 +38°C° 0 mm 2 mps 753 mmHg 38%
    15:00 +38°C° 0 mm 2 mps 753 mmHg 38%
    16:00 +37°C° 0 mm 3 mps 753 mmHg 45%
    17:00 +36°C° 0 mm 3 mps 753 mmHg 52%
    18:00 +34°C° 0 mm 4 mps 754 mmHg 59%
    19:00 +32°C° 0 mm 4 mps 754 mmHg 64%
    20:00 +28°C° 0 mm 4 mps 754 mmHg 69%
    21:00 +25°C° 0 mm 5 mps 755 mmHg 74%
    22:00 +23°C° 0 mm 4 mps 755 mmHg 65%
    23:00 +23°C° 0 mm 4 mps 755 mmHg 57%
    Show more